Weather History for Cecil Field, FL

Change the Weather History Date:

Friday, April 26, 2013

  Actual Average (KJAX) Record (KJAX)
Temperature  
Mean Temperature 68 °F 69 °F  
Max Temperature 78 °F 81 °F 92 °F (2011)
Min Temperature 57 °F 57 °F 40 °F (1974)
Degree Days  
Heating Degree Days 0 1  
Month to date heating degree days 52  
Since 1 July heating degree days 1341  
Cooling Degree Days 2 5  
Month to date cooling degree days 92  
Year to date cooling degree days 175  
Growing Degree Days 18 (Base 50)    
Moisture  
Dew Point 60 °F    
Average Humidity 81    
Maximum Humidity 100    
Minimum Humidity 61    
Precipitation  
Precipitation 0.00 in 0.07 in 0.86 in (1895)
Month to date precipitation 2.36  
Year to date precipitation 12.80  
Snow  
Snow 0.00 in 0.00 in 0.00 in (2002)
Month to date snowfall 0.0  
Since 1 July snowfall T  
Snow Depth -    
Sea Level Pressure  
Sea Level Pressure 30.25 in    
Wind  
Wind Speed 3 mph (NNE)    
Max Wind Speed 16 mph    
Max Gust Speed -    
Visibility 9 miles    
Events      
T = Trace of Precipitation, MM = Missing Value Source: NWS Daily Summary

Daily Weather History Graph

Daily Weather History Graph

Search for Another Location

Airport:

Trip Planner

Search our weather history database for the weather conditions in past years. The results will help you decide how hot, cold, wet, or windy it might be!

Date:

Astronomy

Apr. 26, 2013 Rise Set
Actual Time 6:48 AM EDT 8:02 PM EDT
Civil Twilight 6:23 AM EDT 8:27 PM EDT
Nautical Twilight 5:53 AM EDT 8:57 PM EDT
Astronomical Twilight 5:22 AM EDT 9:28 PM EDT
Moon 9:17 PM EDT (4/26) 7:18 AM EDT (4/26)
Length of Visible Light 14h 03m
Length of Day
13h 13m
Full, 99% of the Moon is Illuminated
Apr 26
Full
May 2
Last Quarter
May 9
New
May 18
First Quarter
May 25
Full

Hourly Weather History & Observations

Time (EDT) Temp. Dew Point Humidity Pressure Visibility Wind Dir Wind Speed Gust Speed Precip Events Conditions
12:15 AM 68.0 °F 66.2 °F 94% 30.22 in 10.0 mi Calm Calm - N/A   Scattered Clouds
12:35 AM 66.2 °F 64.4 °F 94% 30.22 in 10.0 mi Calm Calm - N/A   Scattered Clouds
12:55 AM 66.2 °F 64.4 °F 94% 30.22 in 10.0 mi Calm Calm - N/A   Scattered Clouds
1:15 AM 66.2 °F 64.4 °F 94% 30.22 in 10.0 mi Calm Calm - N/A   Partly Cloudy
1:35 AM 66.2 °F 64.4 °F 94% 30.22 in 10.0 mi Calm Calm - N/A   Clear
1:55 AM 66.2 °F 64.4 °F 94% 30.21 in 10.0 mi Calm Calm - N/A   Partly Cloudy
2:15 AM 66.2 °F 62.6 °F 88% 30.21 in 10.0 mi Calm Calm - N/A   Scattered Clouds
2:35 AM 64.4 °F 62.6 °F 94% 30.21 in 10.0 mi Calm Calm - N/A   Partly Cloudy
3:15 AM 62.6 °F 60.8 °F 94% 30.20 in 8.0 mi Calm Calm - N/A   Partly Cloudy
3:35 AM 60.8 °F 60.8 °F 100% 30.20 in 10.0 mi Calm Calm - N/A   Clear
3:55 AM 59.0 °F 59.0 °F 100% 30.19 in 6.0 mi Calm Calm - N/A   Clear
4:15 AM 59.0 °F 59.0 °F 100% 30.19 in 9.0 mi Calm Calm - N/A   Clear
4:35 AM 59.0 °F 59.0 °F 100% 30.19 in 10.0 mi Calm Calm - N/A   Clear
4:55 AM 59.0 °F 57.2 °F 94% 30.20 in 10.0 mi North 3.5 mph - N/A   Clear
5:15 AM 59.0 °F 55.4 °F 88% 30.20 in 10.0 mi North 4.6 mph - N/A   Clear
5:35 AM 57.2 °F 55.4 °F 94% 30.21 in 10.0 mi Calm Calm - N/A   Clear
5:55 AM 57.2 °F 55.4 °F 94% 30.21 in 10.0 mi Calm Calm - N/A   Clear
6:15 AM 57.2 °F 55.4 °F 94% 30.21 in 10.0 mi Calm Calm - N/A   Partly Cloudy
6:35 AM 57.2 °F 53.6 °F 88% 30.22 in 10.0 mi North 5.8 mph - N/A   Partly Cloudy
6:50 AM 59.0 °F 50.0 °F 72% 30.21 in 10.0 mi North 6.9 mph - N/A   Clear
7:50 AM 60.8 °F 51.8 °F 72% 30.25 in 10.0 mi North 10.4 mph - N/A   Clear
8:01 AM 62.6 °F 53.6 °F 72% 30.26 in 7.0 mi NNE 8.1 mph - N/A   Mostly Cloudy
8:50 AM 64.4 °F 59.0 °F 83% 30.27 in 7.0 mi NNE 6.9 mph - N/A   Overcast
9:00 AM 66.2 °F 59.0 °F 78% 30.27 in 7.0 mi NNE 8.1 mph - N/A   Overcast
10:11 AM 71.6 °F 64.4 °F 78% 30.29 in 7.0 mi NNE 8.1 mph - N/A   Scattered Clouds
10:50 AM 73.4 °F 64.4 °F 73% 30.30 in 7.0 mi NE 9.2 mph - N/A   Scattered Clouds
11:05 AM 73.4 °F 64.4 °F 73% 30.31 in 5.0 mi NNE 10.4 mph - N/A   Haze
12:50 PM 75.2 °F 64.4 °F 69% 30.30 in 10.0 mi East 9.2 mph - N/A   Mostly Cloudy
1:50 PM 78.8 °F 64.4 °F 61% 30.29 in 10.0 mi East 16.1 mph - N/A   Mostly Cloudy
2:50 PM 77.0 °F 64.4 °F 65% 30.29 in 10.0 mi ENE 16.1 mph - N/A   Scattered Clouds
3:50 PM 77.0 °F 64.4 °F 65% 30.27 in 10.0 mi ENE 16.1 mph - N/A   Scattered Clouds
4:50 PM 77.0 °F 62.6 °F 61% 30.26 in 10.0 mi ENE 11.5 mph - N/A   Clear
5:50 PM 75.2 °F 62.6 °F 65% 30.26 in 10.0 mi ENE 15.0 mph - N/A   Clear
6:50 PM 73.4 °F 59.0 °F 61% 30.26 in 10.0 mi ENE 12.7 mph - N/A   Clear
7:50 PM 71.6 °F 59.0 °F 64% 30.27 in 10.0 mi ENE 6.9 mph - N/A   Clear
8:15 PM 68.0 °F 57.2 °F 68% 30.27 in 10.0 mi NE 5.8 mph - N/A   Clear
8:35 PM 68.0 °F 57.2 °F 68% 30.28 in 10.0 mi NNE 9.2 mph - N/A   Clear
8:55 PM 66.2 °F 57.2 °F 73% 30.29 in 10.0 mi North 5.8 mph - N/A   Clear
9:15 PM 66.2 °F 57.2 °F 73% 30.30 in 10.0 mi North 6.9 mph - N/A   Clear
9:35 PM 66.2 °F 57.2 °F 73% 30.30 in 10.0 mi NNE 8.1 mph - N/A   Clear
9:55 PM 64.4 °F 57.2 °F 77% 30.31 in 10.0 mi NNE 9.2 mph - N/A   Clear
10:15 PM 64.4 °F 59.0 °F 83% 30.31 in 10.0 mi NNE 8.1 mph - N/A   Clear
10:35 PM 64.4 °F 57.2 °F 77% 30.31 in 10.0 mi NNE 6.9 mph - N/A   Clear
10:55 PM 62.6 °F 57.2 °F 82% 30.31 in 10.0 mi NNE 4.6 mph - N/A   Clear
11:15 PM 62.6 °F 57.2 °F 82% 30.30 in 10.0 mi NE 3.5 mph - N/A   Clear
11:35 PM 62.6 °F 57.2 °F 82% 30.29 in 10.0 mi Calm Calm - N/A   Clear
11:55 PM 60.8 °F 57.2 °F 88% 30.28 in 10.0 mi Calm Calm - N/A   Clear